Weather History for LFSO - December, 2012

Change the Weather History Date:

Monday, December 10, 2012

  Actual Average Record
Temperature  
Mean Temperature 35 °F -  
Max Temperature 37 °F 38 °F 46 °F (1997)
Min Temperature 33 °F 31 °F 21 °F (2003)
Degree Days  
Heating Degree Days 30    
Moisture  
Dew Point 33 °F    
Average Humidity 89    
Maximum Humidity 100    
Minimum Humidity 79    
Precipitation  
Precipitation 0.04 in - - ()
Sea Level Pressure  
Sea Level Pressure 29.95 in    
Wind  
Wind Speed 11 mph ()    
Max Wind Speed 17 mph    
Max Gust Speed -    
Visibility 6.2 miles    
Events Rain    
Averages and records for this station are not official NWS values.
T = Trace of Precipitation, MM = Missing Value Source: Averaged Metar Reports

Daily Weather History Graph

Daily Weather History Graph

Search for Another Location

Airport or City:

Trip Planner

Search our weather history database for the weather conditions in past years. The results will help you decide how hot, cold, wet, or windy it might be!

Date:

Astronomy

Dec. 10, 2012 Rise Set
Actual Time 8:17 AM CET 4:40 PM CET
Civil Twilight 7:40 AM CET 5:17 PM CET
Nautical Twilight 7:00 AM CET 5:57 PM CET
Astronomical Twilight 6:22 AM CET 6:35 PM CET
Moon 4:31 AM CET (12/10) 2:27 PM CET (12/10)
Length of Visible Light 9h 36m
Length of Day
8h 22m
Waning Crescent, 12% of the Moon is Illuminated
Dec 10
Waning Crescent
Dec 13
New
Dec 20
First Quarter
Dec 28
Full
Jan 5
Last Quarter

Hourly Weather History & Observations

Time (CET) Temp. Windchill Dew Point Humidity Pressure Visibility Wind Dir Wind Speed Gust Speed Precip Events Conditions
12:00 AM 35.6 °F 25.5 °F 33.8 °F 93% 29.95 in 6.2 mi SW 17.3 mph - N/A   Overcast
12:30 AM 35.6 °F 25.9 °F 33.8 °F 93% 29.92 in 6.2 mi SW 16.1 mph - N/A   Overcast
1:00 AM 35 °F - 35 °F 97% 29.98 in 8 mi SW 12.7 mph - -   Clear
1:00 AM 35.6 °F 27.1 °F 33.8 °F 93% 29.92 in 6.2 mi SW 12.7 mph - N/A   Overcast
1:30 AM 37.4 °F 28.9 °F 35.6 °F 93% 29.92 in 6.2 mi WSW 13.8 mph - N/A   Overcast
2:00 AM 37.4 °F 28.2 °F 35.6 °F 93% 29.92 in 6.2 mi WSW 16.1 mph - N/A   Overcast
2:30 AM 37.4 °F 29.8 °F 35.6 °F 93% 29.92 in 6.2 mi WSW 11.5 mph - N/A   Overcast
3:00 AM 35.6 °F 29.2 °F 33.8 °F 93% 29.92 in 6.2 mi West 8.1 mph - N/A   Mostly Cloudy
3:30 AM 35.6 °F 29.2 °F 35.6 °F 100% 29.89 in 6.2 mi WSW 8.1 mph - N/A   Mostly Cloudy
4:00 AM 35.6 °F 30.7 °F 33.8 °F 93% 29.89 in 6.2 mi West 5.8 mph - N/A   Overcast
4:30 AM 35.6 °F 29.9 °F 33.8 °F 93% 29.89 in 6.2 mi West 6.9 mph - N/A   Overcast
5:00 AM 35.6 °F 29.9 °F 33.8 °F 93% 29.89 in 6.2 mi West 6.9 mph - N/A   Overcast
5:30 AM 35.6 °F 29.2 °F 33.8 °F 93% 29.89 in 6.2 mi West 8.1 mph - N/A   Overcast
6:00 AM 35.6 °F 28.0 °F 33.8 °F 93% 29.89 in 6.2 mi West 10.4 mph - N/A   Overcast
6:30 AM 37.4 °F 29.8 °F 33.8 °F 87% 29.89 in 6.2 mi West 11.5 mph - N/A   Overcast
7:00 AM 36 °F - 33 °F 87% 29.94 in 31 mi West 11.5 mph - -   Clear
7:00 AM 35.6 °F 27.5 °F 33.8 °F 93% 29.89 in 6.2 mi West 11.5 mph - N/A   Overcast
7:30 AM 35.6 °F 27.5 °F 33.8 °F 93% 29.89 in 6.2 mi West 11.5 mph - N/A   Overcast
8:00 AM 35.6 °F 27.5 °F 33.8 °F 93% 29.89 in 6.2 mi West 11.5 mph - N/A   Mostly Cloudy
8:30 AM 35.6 °F 27.5 °F 32.0 °F 87% 29.89 in 6.2 mi West 11.5 mph - N/A   Overcast
9:00 AM 35.6 °F 27.1 °F 33.8 °F 93% 29.89 in 6.2 mi West 12.7 mph - N/A   Overcast
9:30 AM 35.6 °F 26.6 °F 32.0 °F 87% 29.92 in 6.2 mi West 13.8 mph - N/A Rain Light Rain
10:00 AM 35.6 °F 27.5 °F 33.8 °F 93% 29.92 in 6.2 mi West 11.5 mph - N/A Rain Light Rain
10:30 AM 35.6 °F 27.5 °F 33.8 °F 93% 29.92 in 6.2 mi West 11.5 mph - N/A   Overcast
11:00 AM 35.6 °F 27.5 °F 33.8 °F 93% 29.92 in 6.2 mi WNW 11.5 mph - N/A   Overcast
11:30 AM 37.4 °F 29.8 °F 33.8 °F 87% 29.92 in 6.2 mi West 11.5 mph - N/A   Mostly Cloudy
12:00 PM 35.6 °F 27.1 °F 33.8 °F 93% 29.95 in 6.2 mi West 12.7 mph - N/A   Mostly Cloudy
12:30 PM 37.4 °F 28.9 °F 33.8 °F 87% 29.95 in 6.2 mi WNW 13.8 mph - N/A   Overcast
1:00 PM 37 °F - 33 °F 79% 29.98 in 31 mi WNW 12.7 mph - -   Clear
1:00 PM 37.4 °F 29.3 °F 32.0 °F 81% 29.92 in 6.2 mi WNW 12.7 mph - N/A   Mostly Cloudy
1:30 PM 37.4 °F 28.9 °F 32.0 °F 81% 29.92 in 6.2 mi WNW 13.8 mph - N/A   Overcast
2:00 PM 37.4 °F 28.9 °F 32.0 °F 81% 29.95 in 6.2 mi WNW 13.8 mph - N/A   Overcast
2:30 PM 37.4 °F 29.3 °F 32.0 °F 81% 29.95 in 6.2 mi West 12.7 mph - N/A   Overcast
3:00 PM 37.4 °F 28.9 °F 32.0 °F 81% 29.95 in 6.2 mi WNW 13.8 mph - N/A   Overcast
3:30 PM 37.4 °F 29.8 °F 32.0 °F 81% 29.95 in 6.2 mi WNW 11.5 mph - N/A   Overcast
4:00 PM 37.4 °F 29.8 °F 32.0 °F 81% 29.95 in 6.2 mi WNW 11.5 mph - N/A   Overcast
4:30 PM 37.4 °F 29.3 °F 32.0 °F 81% 29.95 in 6.2 mi WNW 12.7 mph - N/A   Overcast
5:00 PM 35.6 °F 28.6 °F 32.0 °F 87% 29.98 in 6.2 mi WNW 9.2 mph - N/A   Overcast
5:30 PM 35.6 °F 28.6 °F 32.0 °F 87% 29.98 in 6.2 mi WNW 9.2 mph - N/A   Overcast
6:00 PM 35.6 °F 28.6 °F 33.8 °F 93% 29.98 in 6.2 mi WNW 9.2 mph - N/A   Overcast
6:30 PM 35.6 °F 28.6 °F 33.8 °F 93% 30.01 in 6.2 mi WNW 9.2 mph - N/A   Overcast
7:00 PM 36 °F - 33 °F 87% 30.06 in 31 mi WNW 8.1 mph - -   Clear
7:00 PM 35.6 °F 29.2 °F 33.8 °F 93% 30.01 in 6.2 mi WNW 8.1 mph - N/A   Overcast
7:30 PM 35.6 °F 29.9 °F 33.8 °F 93% 30.01 in 6.2 mi WNW 6.9 mph - N/A   Overcast
8:00 PM 35.6 °F 30.7 °F 33.8 °F 93% 30.01 in 6.2 mi WNW 5.8 mph - N/A   Overcast
8:30 PM 35.6 °F 30.7 °F 33.8 °F 93% 30.04 in 6.2 mi NW 5.8 mph - N/A   Overcast
9:00 PM 35.6 °F 30.7 °F 33.8 °F 93% 30.04 in 6.2 mi WNW 5.8 mph - N/A   Overcast
9:30 PM 35.6 °F 28.0 °F 32.0 °F 87% 30.04 in 6.2 mi NNW 10.4 mph - N/A   Overcast
10:00 PM 33.8 °F 26.4 °F 32.0 °F 93% 30.04 in 6.2 mi NW 9.2 mph - N/A   Mostly Cloudy
10:30 PM 33.8 °F 24.8 °F 30.2 °F 87% 30.04 in 6.2 mi NNW 12.7 mph - N/A   Mostly Cloudy
11:00 PM 33.8 °F 25.3 °F 30.2 °F 87% 30.06 in 6.2 mi NNW 11.5 mph - N/A   Overcast
11:30 PM 33.8 °F 27.7 °F 28.4 °F 81% 30.06 in 6.2 mi NNW 6.9 mph - N/A   Overcast